User: anonymous   Login
Location: Unspecified
(0.0000°N, 0.0000°E)
Time: 23:09:38
(UTC+00:00)
Language:

STSS DEMO 1 (USA 208) - Orbit

View from above orbital plane
View from above orbital plane
View from above satellite
View from above satellite

Ground track
Ground track

The orbit data is extracted from the following two-line orbital elements,

1 35937U 09052A   15181.00545911 0.00000000  00000-0  00000-0 0    07
2 35937  57.9917 165.4972 0013464 297.3360  62.6640 12.79144213    07
Epoch (UTC): 30 June 2015 00:07:51
Eccentricity: 0.0013464
inclination: 57.9917°
perigee height: 1334 km
apogee height: 1355 km
right ascension of ascending node: 165.4972°
argument of perigee: 297.3360°
revolutions per day: 12.79144213
mean anomaly at epoch: 62.6640°
orbit number at epoch: 0

The dashed part of the orbit path shows where the satellite is in the earth's shadow,  

DLR